Temp
17 17 18 18 18 18 19 19 19 19 19 18 19 19 19 19 19 18 18 18 18 18 18 18 19 18 18 18 18 19 19 18 18 18 18 18 18 17 17 17 17 18 18
18 18 18 18 18 18 18 19 19 19 18 19 19 19 19 18 18 18 18 18 18 18 18 19 18 18 18 18 18 18 18 17 17 18 18 18 17 17 17 17 17 18 17
19 19 19 18 18 18 18 19 19 19 19 19 19 18 18 19 18 18 18 18 18 18 18 18 18 18 18 18 18 18 17 17 17 17 17 16 18 17 17 17 17 17 17
19 18 19 18 18 18 18 19 19 19 19 19 18 18 18 18 18 18 18 18 18 18 18 18 18 18 18 18 18 18 17 17 17 17 17 17 18 17 17 17 17 17 17
18 18 19 19 18 18 18 19 19 19 19 19 19 18 18 19 18 18 18 18 18 18 18 18 18 18 18 18 18 18 17 18 17 17 17 17 17 18 17 17 17 17 17
18 18 19 19 18 18 19 19 19 19 19 19 19 18 18 18 18 19 19 18 18 18 18 18 18 18 18 18 18 18 18 18 17 17 18 18 18 17 17 16 17 17 17
19 18 19 19 18 19 19 19 19 19 19 19 19 19 18 19 19 19 19 19 18 19 19 19 18 18 18 18 18 18 18 17 17 17 17 18 18 17 17 17 17 17 17
18 18 19 19 18 19 19 19 19 19 19 19 19 19 19 19 19 19 19 19 19 19 19 19 19 19 19 19 19 18 18 18 17 18 18 18 18 17 17 17 17 17 17
20 18 19 18 19 19 19 19 19 19 19 19 19 19 19 19 19 19 19 19 19 19 19 19 19 19 19 19 19 18 18 18 18 18 18 18 17 18 17 17 17 17 17
20 18 17 17 19 19 19 19 19 19 19 19 19 19 18 19 19 19 19 19 19 19 19 19 19 19 19 19 19 18 18 18 18 17 18 18 18 18 17 17 17 17 17
20 19 18 17 18 17 19 19 19 19 19 19 18 19 19 18 18 18 19 19 19 19 19 19 19 19 19 19 19 19 18 19 18 18 18 19 18 18 17 17 17 17 17
20 20 19 19 18 18 18 19 19 19 20 19 18 20 19 18 18 18 19 19 19 19 19 20 19 18 19 18 19 20 19 19 18 19 19 19 18 18 17 17 17 17 17
21 21 20 20 19 19 19 19 19 19 19 19 19 20 18 17 18 18 19 19 19 19 19 19 20 19 19 19 19 21 20 20 19 19 19 19 19 18 17 17 17 17 17
22 22 21 20 20 20 20 20 19 20 20 20 19 19 18 19 19 20 19 19 18 18 19 19 19 19 20 21 20 20 20 20 19 19 20 19 19 18 17 17 17 17 17
23 23 22 20 20 20 20 20 20 21 21 21 20 21 19 20 19 20 19 19 19 18 18 18 19 19 19 20 20 20 20 20 19 19 19 19 19 18 18 17 17 17 17
23 23 22 21 20 20 20 20 20 21 21 21 21 20 20 19 19 19 19 19 19 19 19 19 19 19 19 19 20 20 20 20 20 19 19 19 19 18 18 18 17 17 17
23 23 22 21 20 20 20 20 20 20 21 21 21 21 20 19 19 19 19 19 19 19 19 19 20 19 19 20 20 20 20 20 19 19 18 18 18 19 18 18 18 17 17
23 23 22 21 20 19 19 19 20 20 20 21 21 21 20 20 19 19 19 19 20 19 19 19 20 20 20 20 20 20 20 20 19 19 18 18 18 18 18 18 18 17 17
24 23 22 21 21 19 19 18 19 19 20 21 21 21 20 20 20 19 20 19 19 20 20 20 20 20 20 20 20 20 20 20 19 20 19 19 19 19 18 18 18 18 17
24 23 22 21 21 20 19 18 18 19 20 20 21 21 21 20 20 20 19 19 19 20 20 20 20 20 20 20 20 20 20 20 20 20 20 19 18 18 18 18 18 17 18
23 22 22 21 21 20 19 19 19 19 20 20 20 21 21 20 20 20 19 19 19 19 19 20 20 20 20 20 20 20 20 20 21 21 20 20 19 19 18 18 18 17 17
23 22 22 21 20 20 20 19 19 20 20 20 20 21 20 20 19 20 20 19 19 20 19 20 19 19 20 20 20 20 20 20 21 21 20 20 20 19 18 18 18 17 17
23 22 22 21 20 20 20 19 20 20 21 21 20 20 20 20 19 19 19 20 19 19 19 19 21 20 20 20 19 19 20 21 21 20 20 20 20 19 19 18 18 17 17
24 23 22 21 20 20 20 19 20 20 20 21 21 21 20 20 20 19 19 20 20 20 20 20 20 20 19 20 20 20 20 20 21 20 20 20 20 19 19 18 18 18 17
24 23 22 22 21 19 20 19 20 20 20 21 21 21 21 21 21 20 19 20 20 20 19 19 20 20 20 20 20 20 20 20 20 20 21 20 20 20 19 19 18 18 18
25 23 21 21 21 20 20 20 20 20 20 21 21 21 21 21 20 20 20 20 20 20 19 19 20 20 20 20 20 20 20 21 21 20 21 20 20 20 20 19 19 19 18
Height
1528 1531 1534 1537 1539 1541 1543 1545 1547 1548 1549 1550 1551 1552 1553 1553 1553 1554 1554 1556 1557 1558 1560 1560 1561 1562 1563 1563 1563 1562 1562 1563 1564 1566 1567 1568 1569 1570 1571 1572 1573 1574 1574
1527 1531 1535 1538 1541 1543 1546 1548 1549 1550 1552 1553 1554 1554 1555 1555 1556 1556 1557 1558 1559 1560 1562 1563 1564 1564 1565 1565 1565 1565 1564 1565 1566 1568 1569 1571 1571 1571 1572 1572 1573 1575 1576
1528 1532 1537 1540 1543 1546 1548 1549 1551 1552 1554 1554 1556 1556 1557 1557 1558 1558 1559 1560 1561 1562 1563 1564 1566 1566 1566 1566 1567 1567 1567 1567 1568 1570 1571 1573 1574 1573 1574 1575 1575 1577 1578
1529 1535 1538 1542 1545 1548 1549 1551 1553 1555 1555 1557 1558 1559 1560 1560 1560 1560 1560 1561 1562 1563 1565 1566 1567 1567 1568 1568 1568 1569 1569 1570 1571 1572 1574 1576 1575 1576 1577 1577 1578 1579 1580
1532 1539 1540 1543 1546 1549 1552 1554 1555 1557 1558 1559 1560 1561 1562 1562 1562 1563 1563 1563 1564 1565 1566 1567 1568 1569 1569 1570 1570 1571 1571 1572 1573 1574 1577 1576 1576 1577 1578 1579 1580 1581 1582
1534 1541 1542 1545 1547 1551 1553 1556 1558 1560 1561 1562 1563 1563 1564 1565 1565 1565 1566 1566 1567 1568 1569 1570 1570 1571 1571 1572 1572 1573 1573 1574 1574 1575 1578 1578 1579 1579 1580 1581 1582 1583 1584
1537 1540 1544 1547 1549 1552 1555 1557 1560 1562 1563 1564 1565 1566 1566 1567 1567 1568 1569 1569 1570 1571 1572 1572 1573 1574 1574 1574 1573 1574 1575 1576 1577 1579 1578 1580 1581 1581 1582 1583 1584 1585 1586
1540 1542 1545 1549 1551 1554 1556 1559 1562 1564 1565 1566 1567 1568 1568 1569 1571 1571 1572 1572 1572 1573 1574 1575 1575 1576 1576 1576 1576 1576 1576 1577 1579 1580 1580 1582 1583 1583 1584 1585 1586 1587 1588
1543 1544 1546 1549 1553 1555 1558 1561 1564 1565 1566 1568 1569 1570 1572 1573 1574 1574 1575 1575 1575 1576 1577 1578 1578 1578 1577 1578 1578 1578 1579 1580 1582 1582 1582 1584 1584 1585 1586 1587 1588 1589 1590
1544 1545 1547 1551 1554 1557 1560 1563 1565 1566 1568 1569 1572 1574 1576 1576 1577 1578 1578 1579 1578 1577 1578 1579 1579 1580 1580 1581 1582 1582 1581 1582 1583 1585 1584 1586 1586 1587 1588 1589 1590 1590 1591
1544 1547 1550 1553 1555 1559 1561 1564 1566 1567 1569 1572 1574 1573 1571 1574 1578 1581 1581 1581 1580 1579 1580 1579 1579 1580 1581 1582 1582 1584 1582 1582 1584 1585 1586 1586 1587 1588 1589 1590 1591 1592 1593
1543 1547 1551 1554 1557 1560 1563 1565 1567 1569 1571 1574 1569 1572 1576 1574 1577 1581 1582 1583 1582 1581 1579 1580 1580 1580 1581 1583 1584 1585 1584 1583 1584 1584 1586 1587 1587 1588 1589 1591 1592 1593 1595
1543 1547 1550 1554 1558 1561 1563 1566 1567 1569 1571 1574 1570 1585 1563 1578 1577 1581 1581 1583 1582 1581 1581 1581 1583 1581 1583 1583 1585 1587 1586 1585 1586 1585 1586 1587 1588 1589 1590 1592 1594 1595 1597
1541 1545 1549 1552 1557 1561 1563 1567 1568 1570 1573 1575 1570 1583 1584 1580 1575 1580 1582 1583 1582 1580 1582 1582 1582 1582 1584 1584 1586 1589 1589 1586 1587 1588 1587 1587 1588 1590 1591 1593 1595 1597 1598
1540 1544 1547 1549 1555 1560 1564 1566 1568 1572 1574 1575 1572 1572 1573 1575 1576 1581 1583 1584 1583 1582 1583 1582 1584 1584 1586 1587 1587 1588 1589 1588 1588 1589 1589 1589 1590 1592 1593 1595 1596 1597 1598
1538 1542 1545 1547 1552 1558 1561 1564 1567 1570 1573 1575 1575 1575 1578 1579 1581 1583 1585 1584 1582 1583 1584 1585 1585 1586 1586 1588 1588 1589 1589 1589 1587 1589 1591 1591 1592 1593 1595 1596 1596 1598 1599
1535 1540 1543 1545 1550 1555 1559 1561 1565 1569 1572 1574 1576 1576 1579 1580 1582 1582 1583 1582 1583 1583 1584 1585 1586 1586 1587 1589 1590 1589 1590 1590 1591 1589 1592 1593 1594 1595 1595 1596 1597 1596 1597
1533 1537 1540 1545 1547 1552 1556 1561 1564 1567 1571 1573 1575 1575 1577 1579 1581 1581 1581 1581 1583 1583 1585 1585 1585 1586 1588 1588 1589 1589 1590 1590 1591 1591 1591 1593 1594 1595 1595 1595 1596 1597 1598
1529 1533 1538 1543 1545 1549 1554 1558 1562 1565 1568 1571 1574 1574 1575 1577 1578 1578 1580 1580 1582 1583 1584 1585 1586 1586 1588 1589 1589 1590 1591 1591 1592 1592 1593 1594 1593 1593 1594 1595 1595 1596 1597
1526 1530 1536 1541 1545 1547 1552 1556 1560 1563 1566 1568 1571 1573 1572 1574 1575 1576 1579 1580 1582 1583 1584 1585 1585 1586 1587 1589 1590 1591 1591 1592 1593 1593 1594 1593 1593 1594 1595 1596 1597 1597 1597
1522 1526 1531 1537 1543 1545 1548 1552 1556 1559 1563 1566 1568 1570 1570 1571 1573 1575 1576 1579 1581 1582 1582 1583 1584 1586 1587 1588 1590 1591 1592 1592 1592 1593 1594 1595 1595 1596 1596 1595 1596 1596 1596
1517 1521 1527 1533 1539 1542 1545 1549 1554 1558 1560 1563 1566 1568 1568 1569 1572 1573 1576 1578 1580 1581 1581 1583 1583 1585 1587 1588 1589 1591 1592 1594 1595 1595 1596 1597 1597 1597 1597 1597 1596 1597 1598
1511 1516 1521 1527 1534 1538 1542 1548 1552 1556 1559 1560 1562 1565 1566 1568 1570 1572 1574 1577 1579 1580 1581 1583 1583 1585 1586 1588 1589 1590 1590 1592 1594 1595 1596 1597 1599 1597 1598 1597 1596 1596 1598
1506 1511 1516 1522 1528 1533 1539 1543 1547 1550 1553 1556 1559 1563 1564 1565 1567 1569 1573 1575 1576 1579 1580 1580 1583 1584 1586 1587 1588 1589 1590 1591 1592 1595 1597 1597 1598 1598 1597 1597 1597 1596 1596
1501 1505 1510 1515 1522 1528 1533 1539 1543 1546 1549 1553 1557 1559 1561 1563 1565 1568 1570 1572 1575 1577 1578 1580 1581 1583 1585 1586 1587 1588 1589 1591 1593 1595 1596 1596 1596 1596 1596 1597 1596 1597 1597
1498 1502 1506 1510 1516 1522 1527 1533 1537 1541 1545 1549 1552 1555 1558 1560 1562 1565 1567 1569 1572 1575 1576 1578 1580 1581 1583 1585 1586 1588 1589 1591 1593 1593 1593 1594 1593 1594 1595 1595 1597 1596 1597
Wind_Speed
26 23 24 21 22 20 18 18 17 16 16 15 15 15 14 15 15 15 15 14 12 11 11 10 10 10 10 12 14 11 10 10 10 9 9 11 12 13 14 18 13 7 10
32 28 25 23 21 19 17 17 16 15 14 15 14 14 14 14 15 16 15 14 13 11 10 10 10 11 12 13 15 14 15 14 14 14 14 10 12 13 11 14 12 9 12
32 29 26 23 20 19 17 17 16 14 14 14 13 14 13 14 15 15 14 14 13 12 11 10 12 12 12 13 14 14 15 16 15 14 16 10 7 10 10 13 9 10 12
32 26 26 21 19 19 17 16 14 13 13 12 13 12 13 14 15 16 15 15 14 13 12 11 11 10 10 11 13 15 15 15 18 18 18 11 2 8 9 11 12 12 11
28 20 24 20 18 18 17 15 13 12 11 10 11 12 13 14 15 16 15 15 15 15 14 12 10 9 9 9 8 13 17 17 14 17 8 9 4 9 9 11 11 12 11
29 17 22 19 19 18 17 14 13 11 9 9 11 11 12 13 14 15 16 17 17 17 16 14 12 10 11 11 8 14 16 16 12 17 10 8 6 10 11 10 9 9 8
27 19 23 20 19 19 17 14 12 10 9 9 10 11 12 13 13 15 16 17 17 16 15 14 13 13 12 12 11 13 14 15 9 15 4 4 7 9 10 9 9 10 10
23 19 24 21 20 19 16 14 12 10 9 9 10 10 10 11 12 14 15 15 15 14 13 12 13 13 13 13 14 13 14 13 11 11 3 7 9 10 11 11 11 10 11
22 23 26 22 20 18 16 14 12 10 8 9 10 10 11 11 11 12 13 13 13 13 13 13 12 11 10 12 15 14 13 16 10 6 5 7 8 9 11 10 10 10 10
25 21 21 20 21 18 16 13 12 10 9 10 9 10 12 12 11 9 11 11 11 12 13 11 10 11 9 13 13 14 18 14 14 11 1 3 5 8 9 9 9 10 10
28 23 22 19 16 14 14 14 12 11 9 9 7 7 7 9 6 5 8 7 9 11 13 7 6 6 9 11 14 7 10 15 14 6 1 2 4 7 8 8 8 9 9
27 26 23 20 16 13 12 13 12 10 9 9 5 7 12 13 8 3 5 6 7 8 8 7 3 1 3 3 6 13 6 11 11 2 3 1 4 6 7 8 8 8 7
28 27 25 23 19 15 16 11 8 7 6 6 3 6 10 10 9 7 6 6 6 7 2 12 5 9 10 4 1 8 7 7 9 3 4 3 3 5 8 7 6 6 6
30 30 27 26 21 17 18 9 8 8 11 10 7 2 7 5 13 5 6 5 2 5 6 9 11 13 4 9 10 4 3 8 13 2 8 2 4 5 7 6 5 5 5
28 30 30 27 24 21 15 10 14 12 9 8 7 2 1 9 5 4 6 6 1 2 4 5 7 3 5 3 4 8 2 5 4 3 6 6 2 5 5 6 4 5 5
28 29 28 26 24 23 20 16 13 15 10 8 6 6 4 4 4 5 5 8 2 1 5 5 1 3 8 6 7 6 8 4 3 4 5 10 10 4 3 4 4 4 4
27 29 29 25 23 27 25 20 17 10 9 8 4 10 8 9 3 4 5 2 3 4 6 4 10 6 10 4 5 5 2 5 6 2 3 6 10 11 6 1 5 5 4
31 32 30 24 22 29 28 24 21 13 11 9 10 11 8 11 9 5 5 4 2 4 1 3 4 3 8 4 2 1 8 4 7 6 9 3 5 7 8 8 2 3 5
33 34 31 26 27 22 23 21 19 14 14 12 10 10 9 8 9 7 3 3 3 4 5 2 5 3 2 4 4 4 4 7 6 5 1 1 1 6 9 7 7 4 3
32 34 33 28 25 25 22 21 16 16 16 15 12 11 13 10 10 7 3 4 5 3 3 4 4 3 3 2 5 6 8 1 2 1 5 3 9 4 7 5 4 4 3
33 34 35 33 30 29 25 24 22 18 17 15 14 13 14 15 13 11 6 3 3 3 4 4 4 6 4 2 9 9 3 4 6 1 9 10 4 8 5 6 6 1 3
37 36 36 37 34 31 30 25 22 20 18 17 16 16 19 18 14 11 9 5 6 7 6 2 6 5 3 12 6 9 9 9 4 6 9 7 5 8 7 2 2 2 3
38 41 39 38 38 36 32 27 22 21 19 20 18 19 20 20 16 14 12 9 9 7 6 2 7 8 5 6 4 3 4 8 12 4 7 10 6 5 3 6 3 3 2
40 41 41 38 39 39 36 29 29 30 27 23 21 20 19 16 18 15 12 11 12 9 9 3 6 9 4 3 9 3 3 4 7 8 6 8 5 5 4 4 2 3 4
40 41 43 40 38 39 38 31 29 28 27 23 21 19 21 19 16 16 17 14 13 14 11 7 8 9 8 8 3 4 5 3 4 5 9 10 5 8 9 7 9 4 1
39 40 40 40 39 39 36 39 31 32 28 26 25 23 22 22 21 17 20 16 14 17 12 11 11 8 11 12 11 7 5 7 5 8 8 15 13 11 10 6 8 7 6
Wind_Direction
150 138 136 133 131 130 127 123 119 113 103 97 89 86 85 80 78 81 81 83 91 93 91 95 85 82 69 58 53 67 77 83 93 103 115 123 122 119 116 105 80 99 99
150 143 139 136 137 135 130 127 120 112 108 97 91 91 88 84 83 81 84 86 91 92 95 94 84 73 66 62 61 73 76 86 91 93 89 102 122 125 116 132 139 108 104
150 142 140 138 138 139 134 130 121 119 107 97 96 86 84 88 84 83 83 85 88 89 96 94 85 75 67 65 58 77 88 95 92 88 83 63 122 131 114 119 108 117 107
149 145 147 141 139 139 139 133 125 122 107 105 97 99 92 90 88 84 81 82 86 90 90 93 85 74 66 66 70 70 96 88 81 88 82 118 79 128 107 105 109 101 103
140 148 158 148 142 142 143 136 131 121 113 106 103 96 96 95 89 84 85 85 88 89 89 88 86 78 70 62 72 77 96 81 93 95 103 102 105 122 114 111 107 105 101
138 160 168 156 147 148 144 140 132 126 115 107 106 100 103 99 93 94 94 91 92 90 85 82 78 78 76 63 75 98 103 84 95 100 98 127 74 107 112 105 106 115 105
142 169 171 160 153 152 147 143 139 137 118 110 108 106 104 103 102 105 103 99 94 90 87 83 79 72 65 62 72 103 106 96 82 100 99 102 114 114 109 105 107 108 117
149 164 167 161 158 155 151 147 147 136 118 118 111 106 103 102 103 109 109 104 97 88 84 80 75 67 61 62 73 108 108 101 110 106 123 89 107 104 103 109 107 107 115
156 161 165 160 162 161 156 154 152 136 122 123 118 104 92 91 99 108 113 106 94 82 77 73 71 69 66 67 70 92 110 107 115 85 67 115 112 102 105 106 104 103 109
156 160 158 165 165 165 159 158 153 138 128 128 114 104 98 93 90 101 110 104 98 85 78 83 85 71 70 80 81 91 95 118 105 126 333 36 108 107 113 110 108 108 110
160 158 159 162 168 163 166 163 156 143 135 119 104 131 146 111 100 91 105 110 98 84 78 84 92 80 70 100 103 92 114 96 125 150 70 42 133 113 118 118 112 121 114
161 162 166 165 169 169 161 165 156 145 119 104 145 135 148 108 127 173 111 98 97 94 100 94 113 94 54 244 97 57 102 123 157 120 36 72 156 134 135 126 121 123 127
165 166 171 172 170 162 183 170 137 120 111 144 252 111 236 140 134 153 98 107 103 74 95 50 92 55 50 43 301 48 63 114 165 201 12 357 169 160 143 133 124 124 129
169 173 173 179 172 174 193 196 160 178 175 187 245 223 124 170 121 125 97 105 48 210 56 63 43 44 75 116 92 19 112 65 188 114 14 9 193 155 152 136 139 127 129
175 174 177 180 179 184 182 176 179 188 181 194 227 283 20 74 92 72 93 107 119 97 346 46 42 30 82 108 112 87 107 121 37 45 25 53 80 158 147 156 152 156 158
181 177 178 184 186 192 180 193 199 190 197 185 193 233 174 113 165 136 149 144 177 264 51 90 113 91 88 80 117 94 92 114 4 90 82 72 71 82 168 168 180 181 186
184 179 185 186 193 194 193 196 191 179 194 204 215 212 237 169 215 150 133 114 78 27 49 102 46 95 132 137 77 114 143 88 89 36 98 89 60 60 83 176 207 191 187
182 186 189 188 202 204 201 202 192 178 214 202 210 248 263 191 179 182 161 187 145 78 148 74 50 97 104 154 170 54 117 76 89 124 101 83 40 51 77 86 91 222 219
184 186 189 190 203 211 200 205 201 197 204 214 214 232 254 227 191 192 210 172 110 121 127 43 147 124 189 187 102 137 59 105 152 115 122 96 135 31 69 83 82 58 105
186 191 190 192 198 209 209 200 214 194 215 203 217 220 247 252 238 218 205 163 124 183 213 193 170 176 113 157 53 123 122 65 164 148 161 124 150 96 73 45 89 39 31
189 196 199 197 197 207 209 205 196 212 213 219 208 217 239 249 243 224 224 295 173 235 207 300 158 92 128 271 103 118 168 159 124 246 167 126 148 50 97 40 350 89 38
191 197 202 200 199 204 211 211 200 207 211 223 211 216 228 243 226 235 219 215 205 255 217 219 194 168 174 170 168 172 161 165 130 141 129 130 67 106 102 70 33 20 15
193 197 203 204 201 206 209 202 204 207 209 220 217 216 229 236 231 222 229 221 221 232 245 211 166 163 159 209 203 84 154 181 172 171 157 156 141 199 181 166 157 212 186
197 201 206 208 206 209 205 203 204 203 209 206 222 218 231 240 227 230 242 226 214 200 242 229 149 170 163 145 210 160 206 141 169 173 175 188 187 220 195 210 239 90 181
196 197 203 211 213 211 211 197 208 210 208 214 217 220 223 236 237 218 232 235 218 199 222 226 212 192 184 175 162 226 214 174 166 143 180 216 213 219 223 196 228 214 161
198 196 198 210 214 213 213 203 203 216 207 211 215 216 219 223 227 223 223 231 235 196 207 238 232 213 177 187 193 212 207 175 193 191 214 215 220 213 235 226 201 260 259